DW2217 Weather Reports


time (UTC)temp
C
wind
direction
speed
KPH
gust
KPH
rain 1hr
cm
rain 24hr
cm
rain mn
cm
humidity
%
barometer
mb
20260502220749 6 80 0.0 0.0 0.13 0.13 0.13 97 1010.2
20260502220245 6 80 0.0 0.0 0.13 0.13 0.13 96 1010.6
20260502215742 6 80 0.0 3.2 0.00 0.10 0.10 96 1010.4
20260502215239 6 80 0.0 0.0 0.18 0.10 0.10 96 1010.6
20260502214736 6 80 0.0 0.0 0.00 0.08 0.08 96 1010.5
20260502214235 6 82 0.0 3.2 0.00 0.08 0.08 96 1010.6
20260502213731 6 79 0.0 0.0 0.00 0.08 0.08 96 1010.6
20260502213228 7 79 0.0 0.0 0.00 0.08 0.08 96 1010.5
20260502212726 6 80 0.0 3.2 0.00 0.08 0.08 96 1010.5
20260502212224 6 70 0.0 3.2 0.00 0.08 0.08 96 1010.3
20260502211720 7 71 1.6 3.2 0.00 0.08 0.08 96 1010.4
20260502211217 6 65 0.0 0.0 0.00 0.08 0.08 96 1010.5
20260502210714 6 65 3.2 3.2 0.00 0.08 0.08 95 1010.4
20260502210211 6 54 0.0 3.2 0.00 0.08 0.08 95 1010.5
20260502205709 6 54 0.0 3.2 0.00 0.08 0.08 95 1010.7
20260502205204 6 72 3.2 3.2 0.00 0.08 0.08 95 1010.5
20260502204702 6 4 0.0 0.0 0.13 0.08 0.08 95 1010.4
20260502204200 7 59 1.6 4.8 0.13 0.08 0.08 95 1010.5
20260502203656 7 24 0.0 3.2 0.00 0.05 0.05 95 1010.5
20260502203154 7 23 0.0 0.0 0.00 0.05 0.05 95 1010.4
20260502202648 7 23 0.0 0.0 0.00 0.05 0.05 95 1010.4
20260502202147 6 23 1.6 3.2 0.00 0.05 0.05 95 1010.5
20260502201644 6 24 1.6 3.2 0.00 0.05 0.05 95 1010.4
20260502201140 6 25 0.0 3.2 0.00 0.05 0.05 95 1010.3
20260502200636 6 32 0.0 0.0 0.00 0.05 0.05 95 1010.5
20260502200133 6 32 0.0 3.2 0.00 0.05 0.05 94 1010.7
20260502195632 7 32 1.6 3.2 0.00 0.05 0.05 94 1010.4
20260502195127 7 35 0.0 0.0 0.18 0.05 0.05 93 1010.6
20260502194624 7 34 3.2 3.2 0.18 0.05 0.05 92 1010.8
20260502194121 7 37 0.0 0.0 0.00 0.03 0.03 91 1010.9
20260502193617 7 37 0.0 0.0 0.00 0.03 0.03 91 1010.8
20260502193114 7 37 0.0 0.0 0.00 0.03 0.03 91 1010.7
20260502192609 7 40 0.0 0.0 0.00 0.03 0.03 90 1010.7
20260502192108 7 59 0.0 0.0 0.00 0.03 0.03 90 1010.9
20260502191604 7 25 0.0 3.2 0.00 0.03 0.03 90 1011.0
20260502191102 7 51 3.2 3.2 0.00 0.03 0.03 91 1010.9
20260502190559 7 52 1.6 3.2 0.00 0.03 0.03 91 1010.9
20260502190056 7 30 3.2 3.2 0.00 0.03 0.03 91 1011.1
20260502185551 7 31 0.0 3.2 0.00 0.03 0.03 91 1011.2
20260502185048 7 30 3.2 4.8 0.00 0.03 0.03 91 1011.2
20260502184544 6 114 0.0 0.0 0.00 0.03 0.03 91 1011.3
20260502184040 6 114 0.0 0.0 0.00 0.03 0.03 91 1011.4
20260502183536 6 114 0.0 3.2 0.00 0.03 0.03 91 1011.5
20260502183033 6 114 1.6 3.2 0.00 0.03 0.03 91 1011.4
20260502182527 7 114 0.0 0.0 0.00 0.03 0.03 90 1011.4
20260502182024 7 114 0.0 0.0 0.00 0.03 0.03 90 1011.5
20260502181522 7 114 0.0 0.0 0.00 0.03 0.03 90 1011.5
20260502181020 7 114 0.0 0.0 0.00 0.03 0.03 91 1011.3
20260502180516 7 114 1.6 3.2 0.00 0.03 0.03 91 1011.4
20260502170430 6 114 0.0 0.0 0.00 0.03 0.03 90 1011.0
20260502163914 6 114 0.0 0.0 0.00 0.03 0.03 89 1011.3
20260502163410 6 115 0.0 3.2 0.00 0.03 0.03 89 1011.5
20260502162908 6 114 0.0 3.2 0.00 0.03 0.03 89 1011.6
20260502162404 6 112 0.0 3.2 0.00 0.03 0.03 89 1011.5
20260502161901 6 109 0.0 3.2 0.00 0.03 0.03 87 1011.5
20260502161357 6 110 1.6 3.2 0.00 0.03 0.03 87 1011.5
20260502160855 6 75 1.6 3.2 0.00 0.03 0.03 87 1011.7
20260502160353 6 75 1.6 3.2 0.00 0.03 0.03 86 1011.5
20260502152334 6 79 1.6 3.2 0.00 0.03 0.03 84 1011.8
20260502151832 6 76 3.2 4.8 0.00 0.03 0.03 84 1011.7
20260502151328 6 80 3.2 4.8 0.00 0.03 0.03 83 1011.9
20260502150826 6 69 1.6 3.2 0.00 0.03 0.03 83 1011.8
20260502150322 6 61 0.0 3.2 0.00 0.03 0.03 83 1011.9
20260502130710 6 73 0.0 3.2 0.00 0.03 0.03 87 1012.6
20260502130208 6 69 0.0 3.2 0.00 0.03 0.03 85 1012.7
20260502123654 5 35 0.0 3.2 0.00 0.03 0.03 88 1012.8
20260502123151 5 343 0.0 3.2 0.00 0.03 0.03 88 1012.9
20260502122647 5 18 0.0 0.0 0.00 0.03 0.03 89 1012.8
20260502122144 5 65 0.0 3.2 0.00 0.03 0.03 92 1013.0
20260502121642 5 29 0.0 0.0 0.00 0.03 0.03 93 1012.7
20260502121139 5 37 0.0 0.0 0.00 0.03 0.03 93 1012.6
20260502120635 5 59 0.0 4.8 0.00 0.03 0.03 92 1012.6
20260502120132 5 64 0.0 3.2 0.00 0.03 0.03 92 1012.6
20260502115630 5 63 3.2 3.2 0.00 0.03 0.03 91 1012.7
20260502115126 4 61 0.0 3.2 0.00 0.03 0.03 91 1012.6
20260502114622 4 62 0.0 3.2 0.00 0.03 0.03 92 1012.7
20260502114120 4 19 0.0 0.0 0.00 0.03 0.03 91 1012.8
20260502113617 4 18 0.0 0.0 0.00 0.03 0.03 90 1012.9
20260502113115 3 18 0.0 0.0 0.00 0.03 0.03 90 1012.8
20260502112613 3 356 3.2 3.2 0.13 0.03 0.03 91 1013.0
20260502112110 3 354 3.2 4.8 0.13 0.03 0.03 93 1013.0
20260502111608 3 18 1.6 3.2 0.00 0.00 0.00 92 1013.1
20260502111105 3 309 0.0 3.2 0.00 0.00 0.00 90 1013.4
20260502110602 3 337 0.0 0.0 0.00 0.00 0.00 88 1013.1
20260502110100 3 327 3.2 4.8 0.00 0.00 0.00 87 1012.9
20260502105556 3 21 0.0 3.2 0.00 0.00 0.00 90 1012.8
20260502105054 3 38 1.6 3.2 0.00 0.00 0.00 91 1012.8
20260502104551 3 74 4.8 4.8 0.00 0.00 0.00 90 1013.0
20260502104048 3 343 4.8 4.8 0.00 0.00 0.00 89 1012.9
20260502103546 3 305 0.0 3.2 0.00 0.00 0.00 87 1012.9
20260502103044 3 348 3.2 4.8 0.00 0.00 0.00 87 1012.2
20260502102540 4 329 3.2 4.8 0.00 0.00 0.00 82 1012.1
20260502102037 3 11 3.2 4.8 0.00 0.00 0.00 82 1012.1
20260502101535 3 339 3.2 3.2 0.00 0.00 0.00 84 1012.1
20260502101033 3 9 0.0 3.2 0.00 0.00 0.00 83 1012.1
20260502100531 3 352 3.2 3.2 0.00 0.00 0.00 84 1012.2
20260502091506 3 27 3.2 3.2 0.00 0.00 0.00 90 1011.5
20260502091003 3 27 0.0 0.0 0.00 0.00 0.00 90 1011.6
20260502090500 3 27 0.0 0.0 0.00 0.00 0.00 90 1011.4
20260502071355 3 4 1.6 3.2 0.00 0.00 0.00 74 1012.2
20260502070853 3 4 1.6 4.8 0.00 0.00 0.00 73 1012.0
20260502070350 2 37 3.2 3.2 0.00 0.00 0.00 80 1012.1
20260502065849 2 38 3.2 3.2 0.00 0.00 0.00 83 1011.7
20260502065347 2 39 0.0 0.0 0.00 0.00 0.00 83 1011.7
20260502064844 2 39 3.2 3.2 0.00 0.00 0.00 83 1011.7
20260502064337 2 40 0.0 3.2 0.00 0.00 0.00 84 1011.6
20260502063833 2 40 3.2 3.2 0.00 0.00 0.00 86 1011.5
20260502063331 2 41 0.0 3.2 0.00 0.00 0.00 85 1011.6
20260502062828 2 41 1.6 3.2 0.00 0.00 0.00 83 1011.6
20260502062326 2 41 0.0 3.2 0.00 0.00 0.00 81 1011.6
20260502061825 2 41 0.0 3.2 0.00 0.00 0.00 79 1011.4
20260502061322 2 41 0.0 0.0 0.00 0.00 0.00 81 1011.5
20260502060818 3 41 1.6 3.2 0.00 0.00 0.00 78 1011.4
20260502060313 2 41 0.0 3.2 0.00 0.00 0.00 77 1011.3
20260502055811 2 41 0.0 3.2 0.00 0.00 0.00 77 1011.4
20260502055308 2 41 0.0 0.0 0.00 0.00 0.00 79 1011.3
20260502054808 2 41 0.0 0.0 0.00 0.00 0.00 80 1011.4
20260502054305 2 41 0.0 3.2 0.00 0.00 0.00 79 1011.2
20260502053802 2 41 0.0 0.0 0.00 0.00 0.00 74 1011.2
20260502053259 2 41 0.0 0.0 0.00 0.00 0.00 71 1011.3
20260502052757 2 41 0.0 3.2 0.00 0.00 0.00 77 1011.2
20260502052255 2 41 3.2 3.2 0.00 0.00 0.00 73 1011.4
20260502051753 2 41 0.0 3.2 0.00 0.00 0.00 69 1011.3
20260502051251 2 41 3.2 3.2 0.00 0.00 0.00 73 1011.2
20260502050747 2 41 1.6 3.2 0.00 0.00 0.00 73 1011.4
20260502050243 2 41 0.0 3.2 0.00 0.00 0.00 74 1011.4
20260502045741 3 41 1.6 3.2 0.00 0.00 0.00 77 1011.4
20260502045237 3 41 0.0 3.2 0.00 0.00 0.00 65 1011.4
20260502044734 3 41 0.0 3.2 0.00 0.00 0.00 68 1011.3
20260502044230 3 41 0.0 3.2 0.00 0.00 0.00 74 1011.3
20260502043728 3 41 0.0 0.0 0.00 0.00 0.00 63 1011.4
20260502043225 3 41 1.6 3.2 0.00 0.00 0.00 66 1011.4
20260502042724 3 41 0.0 0.0 0.00 0.00 0.00 69 1011.2
20260502042222 2 41 0.0 3.2 0.00 0.00 0.00 72 1011.2
20260502041720 2 41 1.6 3.2 0.00 0.00 0.00 81 1011.2
20260502041217 2 41 3.2 3.2 0.00 0.00 0.00 80 1011.4
20260502040714 2 42 0.0 0.0 0.00 0.00 0.00 86 1011.2
20260502040210 2 41 0.0 3.2 0.00 0.00 0.00 85 1011.1
20260502035706 3 41 1.6 3.2 0.00 0.00 0.00 81 1011.0
20260502035203 3 42 0.0 0.0 0.00 0.00 0.00 78 1011.1
20260502034701 4 42 0.0 0.0 0.00 0.00 0.00 64 1011.1
20260502034159 4 42 0.0 0.0 0.00 0.00 0.00 61 1011.1
20260502033657 4 41 0.0 3.2 0.00 0.00 0.00 65 1011.0
20260502033155 3 41 1.6 3.2 0.00 0.00 0.00 72 1011.0
20260502032650 3 41 1.6 3.2 0.00 0.00 0.00 84 1010.8
20260502032147 3 41 3.2 3.2 0.00 0.00 0.00 81 1011.0
20260502031645 3 42 3.2 3.2 0.00 0.00 0.00 76 1010.9
20260502031142 5 42 1.6 3.2 0.00 0.00 0.00 72 1010.9
20260502030641 5 74 0.0 3.2 0.00 0.00 0.00 67 1011.0
20260502030139 5 59 3.2 3.2 0.00 0.00 0.00 59 1011.0
20260502025635 5 324 0.0 3.2 0.00 0.00 0.00 54 1010.8
20260502025134 3 324 1.6 3.2 0.00 0.00 0.00 70 1010.9
20260502024631 3 324 0.0 0.0 0.00 0.00 0.00 73 1011.0
20260502024129 4 324 0.0 0.0 0.00 0.00 0.00 73 1011.0
20260502023627 4 324 1.6 3.2 0.00 0.00 0.00 73 1010.9
20260502023124 4 324 0.0 3.2 0.00 0.00 0.00 71 1010.9
20260502022621 5 324 0.0 3.2 0.00 0.00 0.00 70 1010.9
20260502022118 5 324 0.0 3.2 0.00 0.00 0.00 67 1010.9
20260502021615 5 324 0.0 3.2 0.00 0.00 0.00 70 1010.9
20260502021112 6 324 0.0 3.2 0.00 0.00 0.00 60 1011.0
20260502020610 6 324 0.0 3.2 0.00 0.00 0.00 51 1010.9
20260502020106 6 324 0.0 3.2 0.00 0.00 0.00 59 1011.0
20260502015604 5 324 0.0 3.2 0.00 0.00 0.00 60 1011.0
20260502015100 5 324 0.0 0.0 0.00 0.00 0.00 71 1011.0
20260502014557 5 324 0.0 0.0 0.00 0.00 0.00 78 1010.9
20260502014054 6 324 1.6 3.2 0.00 0.00 0.00 73 1010.9
20260502013549 6 324 0.0 0.0 0.00 0.00 0.00 59 1010.9
20260502013046 6 324 1.6 3.2 0.00 0.00 0.00 64 1010.9
20260502012543 6 324 0.0 3.2 0.00 0.00 0.00 70 1010.7
20260502012041 6 324 0.0 3.2 0.00 0.00 0.00 74 1011.0
20260502011537 6 324 0.0 3.2 0.00 0.00 0.00 72 1010.5
20260502011033 7 324 0.0 3.2 0.00 0.00 0.00 70 1010.5
20260502010531 7 323 3.2 3.2 0.00 0.00 0.00 62 1010.7
20260502010027 7 324 0.0 0.0 0.00 0.00 0.00 45 1010.5
20260502005525 7 324 0.0 0.0 0.00 0.00 0.00 52 1010.3
20260502005023 8 324 0.0 0.0 0.00 0.00 0.00 51 1010.4
20260502004518 9 324 0.0 3.2 0.00 0.00 0.00 39 1010.3
20260502004015 10 324 1.6 3.2 0.00 0.00 0.00 38 1010.2
20260502003513 10 324 1.6 3.2 0.00 0.00 0.00 38 1010.5
20260502003009 10 324 1.6 3.2 0.00 0.00 0.00 38 1010.3
20260502002506 10 324 3.2 3.2 0.00 0.00 0.00 38 1010.4
20260502002004 10 324 3.2 3.2 0.00 0.00 0.00 39 1010.1
20260502001501 10 324 3.2 3.2 0.00 0.00 0.00 39 1010.1
20260502000958 10 323 3.2 3.2 0.00 0.00 0.00 39 1010.0
20260502000457 10 323 3.2 4.8 0.00 0.00 0.00 39 1009.8
20260501235953 10 324 3.2 4.8 0.00 0.00 0.00 39 1009.9
20260501235448 10 335 3.2 3.2 0.00 0.00 0.00 40 1009.6
20260501234943 10 289 6.4 8.0 0.00 0.00 0.00 38 1009.6
20260501234440 11 296 3.2 8.0 0.00 0.00 0.00 40 1009.5
20260501233940 11 326 3.2 4.8 0.00 0.00 0.00 42 1009.3
20260501233437 11 289 3.2 8.0 0.00 0.00 0.00 37 1009.4
20260501232932 11 288 4.8 4.8 0.00 0.00 0.00 36 1009.3
20260501232430 12 294 6.4 8.0 0.00 0.00 0.00 37 1009.2
20260501231927 12 312 4.8 8.0 0.00 0.00 0.00 33 1009.1
20260501231426 12 293 8.0 11.3 0.00 0.00 0.00 33 1009.0
20260501230923 12 278 11.3 16.1 0.00 0.00 0.00 32 1009.1
20260501230422 12 274 14.5 16.1 0.00 0.00 0.00 32 1008.7
20260501225919 12 283 8.0 8.0 0.00 0.00 0.00 35 1008.5
20260501225417 12 276 8.0 16.1 0.00 0.00 0.00 32 1008.7
20260501224912 12 270 11.3 19.3 0.00 0.00 0.00 31 1008.5
20260501224410 12 273 9.7 16.1 0.00 0.00 0.00 33 1008.6
20260501223906 12 269 11.3 19.3 0.00 0.00 0.00 32 1008.4
20260501223402 12 276 14.5 19.3 0.00 0.00 0.00 32 1008.4
20260501222858 12 284 14.5 16.1 0.00 0.00 0.00 35 1008.3
20260501222355 13 268 12.9 16.1 0.00 0.00 0.00 32 1008.2
20260501221852 13 268 8.0 19.3 0.00 0.00 0.00 35 1008.1
20260501221349 13 288 11.3 19.3 0.00 0.00 0.00 31 1008.2